[[{"header":{"parameterUnit":"m.s-1","parameterCategory":1,"la1":30.2991,"la2":30.254,"lo1":-89.0895,"lo2":-89.0444,"dy":0.0017,"dx":0.0017,"nx":28,"ny":28,"refTime":"2024-04-08T03:00:00:Z","depth":0,"parameterNumber":2,"parameterNumberName":"U-component_of_WINDS"},"data":[0,0,0,0,0,0,0,0,0,0,0,0,0,0,0,0,0,0,0,0,0,0,0,0,0,0,0,0,0,0,0,0,0,0,0,0,0,0,0,0,0,0,0,0,0,0,0,0,0,0,0,0,0,0,0,0,0,0,-3.0898,-3.09,0,-3.1055,-3.1057,-3.1059,-3.112,-3.112,-3.1119,-3.1119,-3.1285,-3.129,-3.1295,0,0,0,0,0,0,0,0,0,0,0,0,0,-3.0656,-3.066,-3.0898,-3.09,-3.0902,-3.1055,-3.1057,-3.106,-3.112,-3.112,-3.1119,-3.1119,-3.1284,-3.129,-3.1295,0,0,0,0,0,0,0,0,0,0,0,0,0,-3.0782,-3.0661,-3.0898,-3.0951,-3.0957,-3.1055,-3.1057,-3.106,-3.1121,-3.112,-3.1119,-3.1119,-3.1282,-3.1289,-3.1296,-3.1354,0,0,-3.1318,-3.1321,0,0,0,0,0,0,0,0,-3.0775,-3.0791,-3.0941,-3.0947,-3.0955,-3.1067,-3.1033,-3.1159,-3.1121,-3.1059,-3.1119,-3.1118,-3.1214,-3.1227,-3.1258,-3.1362,-3.1369,-3.1319,-3.1323,-3.1327,-3.1329,0,0,0,0,0,0,0,-3.0766,-3.0785,-3.0961,-3.0943,-3.0951,-3.0969,-3.0986,-3.1057,-3.1138,-3.1064,-3.1069,-3.1086,-3.1217,-3.1251,-3.1262,-3.1372,-3.1319,-3.1325,-3.133,-3.1333,-3.1532,-3.1533,0,0,0,0,0,0,-3.0748,-3.0777,-3.0956,-3.0965,-3.0861,-3.0973,-3.0993,-3.1032,-3.1138,-3.1153,-3.1087,-3.1089,-3.1239,-3.1254,-3.1268,-3.1343,-3.1326,-3.1333,-3.1337,-3.1532,-3.1533,-3.1534,0,0,0,0,0,0,-3.0742,-3.0763,-3.0949,-3.0872,-3.0897,-3.0978,-3.1022,-3.1035,-3.1069,-3.1155,-3.117,-3.1105,-3.1239,-3.1258,-3.1332,-3.135,-3.1337,-3.1343,-3.153,-3.1532,-3.1533,-3.1493,0,0,0,0,0,0,-3.0735,-3.0761,-3.0782,-3.0872,-3.0901,-3.1009,-3.1023,-3.1039,-3.108,-3.1084,-3.1176,-3.1191,-3.124,-3.1321,-3.1339,-3.1359,-3.1349,-3.1529,-3.1531,-3.1533,-3.1493,-3.1493,-3.1493,0,0,0,0,0,-3.0726,-3.0766,-3.0783,-3.0804,-3.093,-3.1009,-3.1026,-3.108,-3.1081,-3.1105,-3.116,-3.1188,-3.1345,-3.1328,-3.1349,-3.1372,-3.1528,-3.1531,-3.1533,-3.1493,-3.1493,-3.1493,0,0,0,0,0,0,-3.0678,-3.0779,-3.0799,-3.0868,-3.093,-3.102,-3.105,-3.1078,-3.1141,-3.1143,-3.1208,-3.1229,-3.1297,-3.1343,-3.1322,-3.1434,-3.1439,-3.1445,-3.1402,-3.1402,-3.1402,-3.1389,-3.1355,0,0,0,0,0,-3.0675,-3.0729,-3.0816,-3.0869,-3.0898,-3.0969,-3.1006,-3.1042,-3.1109,-3.1135,-3.1196,-3.1262,-3.1326,-3.1367,-3.1431,-3.1501,-3.1522,-3.1527,-3.1526,-3.1526,-3.153,-3.1571,-3.1574,-3.1541,-3.1541,-3.1541,0,0,-3.067,-3.0732,-3.0763,-3.0861,-3.0912,-3.0969,-3.099,-3.105,-3.1093,-3.1145,-3.1218,-3.1265,-3.1343,-3.1415,-3.145,-3.1454,-3.1545,-3.1529,-3.1527,-3.1533,-3.1574,-3.1577,-3.1579,-3.1542,-3.1542,-3.1542,0,0,-3.069,-3.0742,-3.0792,-3.0843,-3.092,-3.0967,-3.0979,-3.1065,-3.1097,-3.1171,-3.1212,-3.1265,-3.1374,-3.1428,-3.1469,-3.1509,-3.1538,-3.1529,-3.1527,-3.1566,-3.1569,-3.1571,-3.1586,-3.159,-3.1533,-3.1533,-3.1533,0,-3.0674,-3.0759,-3.0814,-3.0871,-3.0913,-3.0961,-3.1013,-3.1061,-3.1156,-3.1185,-3.1189,-3.1326,-3.1382,-3.1467,-3.1477,-3.1509,-3.1526,-3.1518,-3.1564,-3.1567,-3.157,-3.1585,-3.159,-3.1532,-3.1532,-3.1532,-3.1532,0,-3.0736,-3.0795,-3.0826,-3.0914,-3.096,-3.1014,-3.1079,-3.112,-3.1152,-3.1199,-3.1274,-3.1343,-3.1421,-3.1444,-3.1477,-3.1535,-3.1535,-3.155,-3.1556,-3.1571,-3.1585,-3.1591,-3.1529,-3.153,-3.153,-3.1531,0,0,-3.0729,-3.0847,-3.0857,-3.0898,-3.0987,-3.1034,-3.1091,-3.1166,-3.1199,-3.1264,-3.1314,-3.1405,-3.142,-3.1467,-3.1506,-3.154,-3.1568,-3.1552,-3.1555,-3.1552,-3.1636,-3.1623,-3.1628,-3.1587,-3.1589,-3.159,-3.1629,0,-3.076,-3.0861,-3.0913,-3.0993,-3.1048,-3.1095,-3.1145,-3.1206,-3.1251,-3.1306,-3.1358,-3.1421,-3.1436,-3.1464,-3.15,-3.1557,-3.1585,-3.1555,-3.1636,-3.1638,-3.1613,-3.1636,-3.1623,-3.1656,-3.1635,-3.1636,-3.1637,0,-3.081,-3.0871,-3.0955,-3.1038,-3.1063,-3.1106,-3.1179,-3.1231,-3.1302,-3.1333,-3.1385,-3.1424,-3.1487,-3.1489,-3.1578,-3.1556,-3.1593,-3.1626,-3.1628,-3.1637,-3.1637,-3.1645,-3.1668,-3.1673,-3.1646,-3.1646,-3.1645,0,-3.0795,-3.0899,-3.0963,-3.0997,-3.1095,-3.1124,-3.1167,-3.1237,-3.1278,-3.1343,-3.1371,-3.1443,-3.1483,-3.1538,-3.1596,-3.1592,-3.168,-3.1687,-3.1708,-3.1707,-3.1724,-3.1722,-3.1752,-3.1748,-3.1748,-3.1748,-3.1748,0,-3.0824,-3.0873,-3.0958,-3.0997,-3.1055,-3.1114,-3.1171,-3.1217,-3.1279,-3.133,-3.1377,-3.1423,-3.1497,-3.1554,-3.16,-3.1667,-3.1685,-3.1713,-3.1724,-3.1708,-3.1704,-3.1732,-3.1731,-3.175,-3.1749,-3.1749,-3.1749,0,-3.0816,-3.0875,-3.0948,-3.1034,-3.1057,-3.1096,-3.1171,-3.1212,-3.126,-3.1323,-3.1342,-3.1418,-3.1487,-3.155,-3.1643,-3.1674,-3.1742,-3.1757,-3.1717,-3.1723,-3.1741,-3.1738,-3.179,-3.18,-3.1789,-3.1789,-3.1789,0,-3.083,-3.0869,-3.0959,-3.0995,-3.1036,-3.1094,-3.1137,-3.1198,-3.1241,-3.1324,-3.1355,-3.1428,-3.1488,-3.1597,-3.1662,-3.1734,-3.1751,-3.1764,-3.1762,-3.1744,-3.175,-3.1747,-3.1751,-3.1763,-3.1763,-3.1762,-3.1762,0,-3.0849,-3.0876,-3.0933,-3.1002,-3.105,-3.1108,-3.1167,-3.1195,-3.1268,-3.1313,-3.1383,-3.143,-3.1524,-3.1596,-3.1675,-3.1721,-3.1754,-3.1763,-3.1771,-3.1755,-3.173,-3.1743,-3.1714,-3.1761,-3.1761,-3.1761,-3.1761,-3.1761,-3.0853,-3.0889,-3.0958,-3.1021,-3.1072,-3.1126,-3.1168,-3.1221,-3.128,-3.1359,-3.1393,-3.1464,-3.1536,-3.1644,-3.169,-3.1749,-3.1755,-3.1768,-3.1771,-3.1773,-3.177,-3.1721,-3.1763,-3.1764,-3.1764,-3.1764,-3.1764,0,-3.0873,-3.0919,-3.0977,-3.1057,-3.1107,-3.1132,-3.1199,-3.124,-3.1301,-3.1364,-3.1422,-3.1503,-3.1573,-3.1643,-3.1717,-3.175,-3.1768,-3.1768,-3.1766,-3.1776,-3.176,-3.1744,-3.1753,-3.1753,-3.1753,-3.1753,-3.1753,-3.1753,-3.0889,-3.0952,-3.0987,-3.1077,-3.1124,-3.1192,-3.1228,-3.1279,-3.1329,-3.1417,-3.1474,-3.1518,-3.1585,-3.1664,-3.173,-3.1749,-3.1774,-3.177,-3.1793,-3.1777,-3.1777,-3.1777,-3.1763,-3.1775,-3.1775,-3.1805,-3.1805,-3.1805]},{"header":{"parameterUnit":"m.s-1","parameterCategory":1,"la1":30.2991,"la2":30.254,"lo1":-89.0895,"lo2":-89.0444,"dy":0.0017,"dx":0.0017,"nx":28,"ny":28,"refTime":"2024-04-08T03:00:00:Z","depth":0,"parameterNumber":3,"parameterNumberName":"V-component_of_WINDS"},"data":[0,0,0,0,0,0,0,0,0,0,0,0,0,0,0,0,0,0,0,0,0,0,0,0,0,0,0,0,0,0,0,0,0,0,0,0,0,0,0,0,0,0,0,0,0,0,0,0,0,0,0,0,0,0,0,0,0,0,4.0835,4.0836,0,4.0944,4.0945,4.0946,4.0987,4.0987,4.0987,4.0987,4.1095,4.1098,4.1101,0,0,0,0,0,0,0,0,0,0,0,0,0,4.0658,4.0661,4.0834,4.0836,4.0837,4.0944,4.0945,4.0947,4.0988,4.0987,4.0987,4.0986,4.1094,4.1098,4.1102,0,0,0,0,0,0,0,0,0,0,0,0,0,4.0747,4.0662,4.0834,4.0871,4.0875,4.0943,4.0945,4.0947,4.0988,4.0987,4.0987,4.0986,4.1093,4.1097,4.1102,4.1142,0,0,4.1117,4.1119,0,0,0,0,0,0,0,0,4.0742,4.0754,4.0864,4.0868,4.0873,4.0952,4.0923,4.1012,4.0988,4.0945,4.0986,4.0986,4.1048,4.1056,4.1078,4.1147,4.1151,4.1117,4.112,4.1122,4.1124,0,0,0,0,0,0,0,4.0736,4.0749,4.0878,4.0865,4.0871,4.088,4.0892,4.094,4.0997,4.0948,4.0952,4.0964,4.105,4.1073,4.108,4.1153,4.1117,4.1121,4.1124,4.1126,4.126,4.1261,0,0,0,0,0,0,4.0724,4.0744,4.0874,4.0881,4.0805,4.0884,4.0897,4.0927,4.0997,4.1007,4.0965,4.0966,4.1065,4.1075,4.1084,4.1136,4.1122,4.1127,4.1129,4.1259,4.126,4.1261,0,0,0,0,0,0,4.072,4.0736,4.087,4.0813,4.0831,4.0887,4.092,4.0929,4.0952,4.1009,4.1019,4.0978,4.1065,4.1078,4.1127,4.114,4.1129,4.1133,4.1258,4.126,4.126,4.1239,0,0,0,0,0,0,4.0715,4.0734,4.075,4.0814,4.0834,4.0912,4.0921,4.0932,4.0961,4.0963,4.1024,4.1034,4.1065,4.112,4.1132,4.1147,4.1137,4.1258,4.1259,4.126,4.1238,4.1239,4.1239,0,0,0,0,0,4.0709,4.0739,4.0751,4.0766,4.0856,4.0913,4.0924,4.0961,4.0962,4.0978,4.1015,4.1032,4.1136,4.1125,4.1139,4.1155,4.1257,4.1259,4.126,4.1238,4.1239,4.1239,0,0,0,0,0,0,4.0675,4.0748,4.0762,4.0814,4.0857,4.092,4.0942,4.096,4.1003,4.1004,4.1046,4.106,4.1106,4.1135,4.1121,4.1197,4.1198,4.1202,4.1176,4.1177,4.1177,4.117,4.1141,0,0,0,0,0,4.0674,4.0715,4.0776,4.0816,4.0837,4.0885,4.0911,4.0936,4.0982,4.1,4.104,4.1083,4.1125,4.1153,4.1195,4.1242,4.1256,4.126,4.126,4.126,4.1264,4.1291,4.1294,4.1266,4.1266,4.1266,0,0,4.0671,4.0716,4.0739,4.081,4.0846,4.0887,4.09,4.0943,4.0973,4.1006,4.1056,4.1087,4.1137,4.1186,4.121,4.1212,4.1274,4.1262,4.1261,4.1265,4.1293,4.1296,4.1298,4.1267,4.1267,4.1266,0,0,4.0688,4.0726,4.0764,4.08,4.0855,4.0887,4.0896,4.0956,4.0978,4.1029,4.1055,4.109,4.1163,4.1198,4.1225,4.1254,4.1272,4.1266,4.1268,4.1295,4.1297,4.1299,4.131,4.1314,4.127,4.127,4.127,0,4.0678,4.0742,4.0781,4.0823,4.0853,4.0885,4.0923,4.0955,4.1021,4.104,4.1042,4.1133,4.1169,4.1227,4.1234,4.1255,4.1266,4.1261,4.1294,4.1296,4.1299,4.131,4.1314,4.1269,4.1269,4.1269,4.1269,0,4.0727,4.0771,4.0794,4.0858,4.0891,4.093,4.0974,4.1002,4.1023,4.1055,4.1106,4.115,4.1202,4.1217,4.1238,4.1278,4.1278,4.1285,4.1288,4.13,4.1311,4.1316,4.1267,4.1268,4.1268,4.1268,0,0,4.0728,4.0812,4.082,4.085,4.0912,4.0946,4.0986,4.1038,4.1062,4.1105,4.114,4.12,4.1208,4.1239,4.1263,4.1286,4.1307,4.1291,4.1293,4.1294,4.1354,4.1349,4.1354,4.1318,4.1319,4.132,4.1351,0,4.0754,4.083,4.0865,4.0924,4.0965,4.0995,4.103,4.1072,4.1102,4.114,4.1172,4.1215,4.1221,4.124,4.1264,4.13,4.132,4.1297,4.1351,4.1353,4.1339,4.1359,4.1354,4.1381,4.1355,4.1356,4.1356,0,4.0796,4.084,4.0904,4.0962,4.098,4.1011,4.1061,4.1097,4.1144,4.1164,4.1199,4.1222,4.1265,4.1263,4.1322,4.1306,4.1329,4.135,4.1351,4.1359,4.1357,4.1369,4.1391,4.1395,4.1364,4.1363,4.1363,0,4.0791,4.0867,4.0915,4.0939,4.1007,4.1028,4.1057,4.1104,4.1133,4.1176,4.1195,4.1242,4.1268,4.1303,4.1339,4.1334,4.1394,4.1395,4.1412,4.1411,4.1425,4.1424,4.1452,4.1437,4.1437,4.1437,4.1437,0,4.0818,4.0856,4.0914,4.0943,4.0986,4.1026,4.1067,4.1098,4.1139,4.1175,4.1203,4.1235,4.1279,4.1317,4.1344,4.139,4.14,4.1418,4.1425,4.1417,4.1415,4.1434,4.1434,4.1438,4.1438,4.1438,4.1438,0,4.0821,4.0861,4.0916,4.0976,4.0992,4.1021,4.1072,4.1101,4.1132,4.1177,4.1189,4.1237,4.1283,4.1322,4.1381,4.14,4.1447,4.1454,4.1432,4.1436,4.1452,4.145,4.1495,4.1503,4.148,4.1481,4.1481,0,4.0836,4.0867,4.093,4.0956,4.0985,4.1027,4.1057,4.1096,4.1126,4.1182,4.1204,4.1252,4.1293,4.1364,4.1404,4.145,4.146,4.1472,4.1467,4.1457,4.1462,4.146,4.1464,4.1473,4.1473,4.1473,4.1473,0,4.086,4.0878,4.0921,4.097,4.1005,4.1046,4.1087,4.1106,4.1153,4.1185,4.1233,4.1264,4.1325,4.1373,4.1423,4.1451,4.147,4.1474,4.1481,4.1473,4.146,4.1469,4.1435,4.1473,4.1473,4.1473,4.1473,4.1473,4.0871,4.0899,4.0948,4.0995,4.103,4.1067,4.1098,4.1133,4.1174,4.1228,4.1248,4.1297,4.1343,4.1412,4.144,4.1479,4.1481,4.149,4.1493,4.1495,4.1495,4.1452,4.1488,4.1488,4.1488,4.1488,4.1488,0,4.0897,4.093,4.0972,4.1029,4.1065,4.108,4.1126,4.1155,4.1198,4.124,4.1279,4.1334,4.138,4.1423,4.147,4.1493,4.1502,4.1504,4.1504,4.151,4.1489,4.148,4.1496,4.1496,4.1496,4.1496,4.1495,4.1495,4.0915,4.0964,4.0988,4.1054,4.1087,4.1136,4.1161,4.1196,4.1229,4.129,4.1328,4.1356,4.1398,4.1449,4.1491,4.1503,4.1519,4.1519,4.1533,4.1513,4.1512,4.151,4.1502,4.1522,4.1522,4.1551,4.1551,4.1551]}]]